Regional Weather Roundup
Issued by NWS

Home | Current Version | Previous Version | Text Only | Print | Product List | Glossary Off
Versions: 1 2 3 4 5 6 7 8 9 10 11 12 13 14 15 16 17 18 19 20 21 22 23 24 25 26 27 28 29 30 31 32 33 34 35 36 37 38 39 40 41 42 43 44 45 46 47 48 49 50

437
ASUS43 KMPX 280701
RWRMN
WEATHER ROUNDUP FOR MINNESOTA
NATIONAL WEATHER SERVICE TWIN CITIES/CHANHASSEN MN
200 AM CDT SUN AUG 28 2016


NOTE: "FAIR" INDICATES FEW OR NO CLOUDS BELOW 12,000 FEET WITH NO
SIGNIFICANT WEATHER AND/OR OBSTRUCTIONS TO VISIBILITY. N/A MEANS
CURRENT SKY AND/OR WEATHER CONDITIONS ARE NOT AVAILABLE.

MNZ060>063-068>070-280800-
   Twin Cities Metro

CITY           SKY/WX    TMP DP  RH WIND       PRES   REMARKS
TWIN CITIES    CLEAR     64  61  90 CALM      30.09S
ST PAUL        FOG       62  62 100 SE5       30.09S VSB 1
CRYSTAL        FOG       57  55  93 CALM      30.08R VSB 1
BLAINE         FOG       61  61 100 NE3       30.10R VSB 1/2
LAKEVILLE      FOG       55  55 100 CALM      30.09F VSB 1/4
EDEN PRAIRIE   CLEAR     62  60  93 SE6       30.07F FOG
LAKEVILLE      FOG       55  55 100 CALM      30.09F VSB 1/4
SOUTH ST PAUL  FOG       62  62  98 CALM      30.09S VSB 1/4
LAKE ELMO      FOG       59  59 100 CALM      30.11R VSB 1/2
$$
MNZ001>005-007-008-013>017-022>024-027-028-280800-
   Northwest Minnesota

CITY           SKY/WX    TMP DP  RH WIND       PRES   REMARKS
BEMIDJI        CLEAR     55  55  99 SE3       30.04S FOG
HALLOCK        CLOUDY    54  54 100 SE7       29.97S
ROSEAU         CLEAR     54  48  82 SE3       30.01R
WARROAD        CLEAR     54  52  94 S3        30.01S
THIEF RVR FALL CLEAR     53  53 100 SE6       30.01S
CROOKSTON      CLEAR     55  54  94 SE7       30.00S
FOSSTON        CLEAR     54  52  94 SE3       30.03S
DETROIT LAKES  CLEAR     61  59  94 S7        30.04S
MOORHEAD       CLEAR     61  57  88 S8        30.01R
PARK RAPIDS    FOG       58  56  93 SE6       30.05S VSB 3/4
MAHNOMEN       FAIR      58  56  95 SE6       30.02S
$$
MNZ006-009>011-018-025>026-280800-
   North Central Minnesota

CITY           SKY/WX    TMP DP  RH WIND       PRES   REMARKS
BAUDETTE       CLEAR     51  50  96 SE5       30.02R
FLAG ISLAND    PTCLDY    63  61  94 CALM      29.99S FOG
INTL FALLS     CLEAR     52  51  97 CALM      30.04S
WASKISH        PTCLDY    57  55  94 S6        30.03S
BIG FORK       CLOUDY    55  54  94 S3        30.06S
LONGVILLE      CLOUDY    59  57  94 SE5       30.06S
GRAND RAPIDS   CLOUDY    56  55  97 SE5       30.09S
CRANE LAKE     CLOUDY    46  46 100 CALM        N/A  VSB 3/4
ORR            CLEAR     52  48  87 CALM      30.05R
COOK           CLEAR     48  48 100 CALM      30.07F
WALKER         CLOUDY    59  58  95 S6        30.05S
$$
MNZ012-019>021-037-280800-
   Northeast Minnesota

CITY           SKY/WX    TMP DP  RH WIND       PRES   REMARKS
DULUTH         MOCLDY    57  56  96 W5        30.09R
ELY            CLOUDY    55  54  94 SW6       30.08R
HIBBING        CLOUDY    49  49 100 CALM      30.09R
EVELETH        MOCLDY    51  50  98 CALM      30.09S FOG
DULUTH HARBOR  MOCLDY    61  57  88 SW5       30.09R
TWO HARBORS    CLOUDY    63  57  82 CALM      30.07R
SILVER BAY     FOG       61  59  94 CALM      30.07R VSB 1
G MARAIS ARPRT CLOUDY    55  52  88 CALM      30.08S FOG
$$
MNZ029>031-032-039>041-046>048-054>057-064-280800-
   West Central Minnesota

CITY           SKY/WX    TMP DP  RH WIND       PRES   REMARKS
FERGUS FALLS   PTCLDY    61  61 100 S9        30.03F
WHEATON        MOCLDY    63  61  94 SE8       30.01F
MORRIS         PTCLDY    61  59  94 SE5       30.01F
ALEXANDRIA     CLOUDY    59  57  94 SE7       30.07S FOG
ELBOW LAKE     FAIR      60  58  96 SE8       30.03F
WADENA         CLEAR     55  55 100 SE3       30.05S
GLENWOOD       DRZL/FOG  57  57 100 E3        30.07S VSB 1/4
APPLETON       CLEAR     63  57  82 SE8       30.01F
BENSON         CLEAR     63  57  82 S7        30.04F
ORTONVILLE     CLEAR     61  57  88 SE6       30.01F
MADISON        PTCLDY    63  61  94 SE7       30.02F
WILLMAR        FAIR      61  59  94 SE6       30.07F
$$
MNZ033>034-036-042>043-049>051-058-059-280800-
   Central Minnesota

CITY           SKY/WX    TMP DP  RH WIND       PRES   REMARKS
ST CLOUD       FOG       61  61 100 E3        30.08R VSB 1/2
SAUK CENTRE    FOG       59  59 100 SE7       30.07S VSB 1/2
PAYNESVILLE    FOG       60  61 100 S6        30.08S VSB 1/2
AITKIN         HAZE      59  54  82 CALM      30.07S VSB 1/2
PINE RIVER     CLOUDY    61  61 100 S6        30.10R
BRAINERD       CLOUDY    59  59 100 SE7       30.08S FOG
STAPLES        CLOUDY    57  57 100 SE3       30.06S FOG
LONG PRAIRIE   FOG       59  59 100 E3        30.07S VSB 1/2
LITTLE FALLS   FOG       57  55  94 E5        30.08S VSB 1/4
LITCHFIELD     DRZL/FOG  61  61 100 CALM      30.08S VSB 1/4
BUFFALO        CLEAR     58  57  96 CALM      30.09S
MAPLE LAKE     CLEAR     61  60  99 CALM      30.09R FOG
HUTCHINSON     CLOUDY    60  60 100 SE5       30.09S FOG
$$
MNZ037-044-045-052-053-280800-
   East Central Minnesota

CITY           SKY/WX    TMP DP  RH WIND       PRES   REMARKS
PRINCETON      CLOUDY    63  61  94 CALM      30.10R FOG
MORA           CLOUDY    59  57  94 CALM      30.11R FOG
CAMBRIDGE      CLOUDY    64  61  88 CALM      30.08S FOG
RUSH CITY      LGT RAIN  61  60  97 CALM      30.10R
MOOSE LAKE     CLOUDY    61  59  94 CALM      30.07S
HINCKLEY       CLOUDY    61  61 100 CALM      30.10R
CLOQUET        CLOUDY    59  57  94 CALM      30.09S
MCGREGOR       CLOUDY    59  59 100 S7        30.09S
$$
MNZ071>073-080-081-089-090-097-098-280800-
   Southwest Minnesota

CITY           SKY/WX    TMP DP  RH WIND       PRES   REMARKS
MONTEVIDEO     CLEAR     61  61 100 S9        30.05F
GRANITE FALLS  CLEAR     63  60  92 SE7       30.06F
CANBY          MOCLDY    62  60  95 SE6       30.03F
MARSHALL       PTCLDY    62  61  96 SE8       30.05F
REDWOOD FALLS  CLEAR     62  60  93 S7        30.06S
OLIVIA         CLEAR     61  59  94 SE6       30.06S
PIPESTONE      CLEAR     64  63  94 SE7       30.06F
WINDOM         CLEAR     63  61  94 SE3       30.09S
WORTHINGTON    CLEAR     59  59 100 SE5       30.09S FOG
JACKSON          N/A     61  57  88 SE3       30.10S FOG
TRACY          CLEAR     64  62  93 S8        30.07S
SLAYTON        CLEAR     57  57 100 SE5       30.09S
$$
MNZ065>067-074>077-082>085-091>093-280800-
   South Central Minnesota

CITY           SKY/WX    TMP DP  RH WIND       PRES   REMARKS
MANKATO        CLEAR     63  59  88 SE6       30.09S
NEW ULM          N/A     61  61 100 SE5       30.08F
ST JAMES       CLEAR     55  55 100 CALM      30.10S FOG
FAIRMONT       FOG       58  58 100 CALM      30.09S VSB 1/2
GLENCOE        CLEAR     61  61 100 E3        30.08S
FARIBAULT      FOG       55  55 100 CALM      30.10S VSB 1/2
OWATONNA       PTCLDY    64  63  94 SE3       30.10S
WASECA         PTCLDY    61  61 100 E5        30.11S FOG
ALBERT LEA     PTCLDY    61  61 100 CALM      30.11R FOG
$$
MNZ078>079-086>088-094>096-280800-
   Southeast Minnesota

CITY           SKY/WX    TMP DP  RH WIND       PRES   REMARKS
ROCHESTER      FOG       61  61 100 S5        30.12S VSB 1/4
RED WING       FOG       61  61 100 CALM      30.09S VSB 1/4
DODGE CENTER   CLEAR     61  59  94 SE6       30.12S FOG
WINONA         CLEAR     63  63 100 CALM      30.11S
AUSTIN         FOG       61  61 100 CALM      30.12R VSB 3/4
PRESTON          N/A     63  62  95 S6        30.13S FOG
$$
ABBREVIATIONS USED IN REMARKS
   TC - TEMPERATURES IN CELSIUS
  WCI - WIND CHILL INDEX
   HX - HEAT INDEX
  VSB - VISIBILITY
$$




USA.gov is the U.S. government's official web portal to all federal, state and local government web resources and services.